User: anonymous   Login
Location: ??????
(55.8274°N, 37.9338°E)
Time: 11:55:04
(UTC+00:00)
Language:

Okean 1 - Orbit

View from above orbital plane
View from above orbital plane
View from above satellite
View from above satellite

Ground track
Ground track

The orbit data is extracted from the following two-line orbital elements,

1 19274U 88056A   24167.74946579  .00006356  00000-0  32690-3 0  9994
2 19274  82.4765 177.4637 0016341 224.2681 135.7245 15.16161300938812
Epoch (UTC): 15 June 2024 17:59:13
Eccentricity: 0.0016341
inclination: 82.4765°
perigee height: 506 km
apogee height: 529 km
right ascension of ascending node: 177.4637°
argument of perigee: 224.2681°
revolutions per day: 15.16161300
mean anomaly at epoch: 135.7245°
orbit number at epoch: 93881

The dashed part of the orbit path shows where the satellite is in the earth's shadow,  

DLR